Location: Burzi?i
(45.0869°N, 16.0577°E)
Time: 11:38:35
(UTC+00:00)

Cosmos 1244 Rocket - Pass Details

Date: 29 October 2020
Orbit: 954 x 997 km, 82.9° (Epoch: 28 November)

Event Time Altitude Azimuth Distance (km) Brightness Sun altitude
Rises 16:35:13 0° 353° (N) 3,661 7.5 -9.0°
Reaches altitude 10° 16:37:44 10° 355° (N) 2,716 6.8 -9.4°
Maximum altitude 16:43:57 75° 80° (E) 1,011 4.5 -10.5°
Drops below altitude 10° 16:50:12 10° 167° (SSE) 2,727 6.8 -11.6°
Sets 16:52:44 0° 169° (SSE) 3,677 7.5 -12.0°
